Weather in Muslyumovo

Russia / Republic of Tatarstan     55°18′16″N   53°11′23″E
temp.,
°C
wind,
m/s
gust,
m/s
humid.,
%
clouds,
%
prec.,
mm/h
press.,
hPa
HPBL,
m
25 february, thu
thu2500:00−28nw22990 0.0 103219
03:00−29wnw22980 0.0 103319
06:00−30w12990 0.0 103419
09:00−25ssw23930 0.0 1033103
12:00−20s348746 0.0 1032277
15:00−19s488970 0.0 1030357
18:00−20sse5990100 0.0 1027253
21:00−21s61096100 0.1 1026309
26 february, fri
fri2600:00−20s51096100 0.1 1024375
03:00−20sse5119594 0.3 1024387
06:00−21sse5119487 0.0 1022329
09:00−19sse6109392 0.1 1022409
12:00−16sse6109298 0.1 1020494
15:00−15sse7119099 0.2 1018548
18:00−16sse71391100 0.0 1016484
21:00−15sse81592100 0.1 1012515
27 february, sat
sat2700:00−13sse91793100 0.7 1006541
03:00−11sse91694100 4.6 1001690
06:00−8sse71394100 3.0 997533
09:00−5s6994100 3.6 996343
12:00−1ssw47100100 0.4 995369
15:000sw37100100 1.3 995411
18:00−7n339792 0.3 99462
21:00−9n369596 0.4 995201
28 february, sun
sun2800:00−11n4895100 0.3 997275
03:00−13nnw5895100 0.8 999319
06:00−16nnw589598 0.1 1001311
09:00−16nnw579599 0.2 1003338
12:00−15nw5793100 0.1 1005421
15:00−14nnw5792100 0.1 1007512
18:00−17nw3697100 0.1 1009120
21:00−19nw339893 0.1 101253
1 march, mon
mon100:00−20nw3310095 0.0 101363
03:00−20nw3310097 0.1 101578
06:00−20wnw3699100 0.1 1017141
09:00−17nw459699 0.2 1019304
12:00−15nnw4592100 0.1 1020469
15:00−14nw3592100 0.1 1021436
18:00−19wnw229989 0.0 102320
21:00−19w2310090 0.1 102421